Torna al catalogo

TIANQI 17

AttivoComunicazioniLEO
NORAD 64059·PAYLOAD·🇨🇳 China

Lanciato May 19, 2025 da Yellow Sea Launch Area

Loading…

Prossimi Passaggi (prossime 24 ore)

TLE

AggiornatoSource: Space-Track

Epoca: Sep 14, 2026, 16:26 UTC

1 64059U 25105B   26257.68534177  .00000073  00000-0  13791-3 0  9994
2 64059  44.9819 343.4736 0008884  90.5937 269.5913 13.99180041 67736

Traccia TIANQI 17 in tempo reale con AllMySat

Download on the App Store